TimeEST,TemperatureF,Dew PointF,Humidity,Sea Level PressureIn,VisibilityMPH,Wind Direction,Wind SpeedMPH,Gust SpeedMPH,PrecipitationIn,Events,Conditions,WindDirDegrees,DateUTC
12:54 AM,34.0,21.0,59,29.81,-9999.0,North,-9999.0,-,N/A,,Unknown,0,2011-11-12 05:54:00
1:54 AM,34.0,21.0,59,29.84,-9999.0,North,-9999.0,-,N/A,,Unknown,0,2011-11-12 06:54:00
2:54 AM,35.1,21.9,59,29.85,-9999.0,North,-9999.0,-,N/A,,Unknown,0,2011-11-12 07:54:00
3:54 AM,35.1,21.0,57,29.87,-9999.0,North,-9999.0,-,N/A,,Unknown,0,2011-11-12 08:54:00
4:54 AM,33.1,21.9,64,29.89,-9999.0,North,-9999.0,-,N/A,,Unknown,0,2011-11-12 09:54:00
5:54 AM,33.1,21.9,64,29.90,-9999.0,North,-9999.0,-,N/A,,Unknown,0,2011-11-12 10:54:00
6:54 AM,34.0,21.9,61,29.92,-9999.0,North,-9999.0,-,N/A,,Unknown,0,2011-11-12 11:54:00
7:54 AM,34.0,23.0,64,29.93,-9999.0,North,-9999.0,-,N/A,,Unknown,0,2011-11-12 12:54:00
8:54 AM,35.1,25.0,67,29.92,-9999.0,North,-9999.0,-,N/A,,Unknown,0,2011-11-12 13:54:00
9:54 AM,37.9,27.0,65,29.93,-9999.0,North,-9999.0,-,N/A,,Unknown,0,2011-11-12 14:54:00
10:54 AM,41.0,28.0,60,29.90,-9999.0,North,-9999.0,-,N/A,,Unknown,0,2011-11-12 15:54:00
11:54 AM,42.1,28.0,58,29.87,-9999.0,North,-9999.0,-,N/A,,Unknown,0,2011-11-12 16:54:00
12:54 PM,45.0,28.0,52,29.86,-9999.0,North,-9999.0,-,N/A,,Unknown,0,2011-11-12 17:54:00
1:54 PM,46.0,28.0,50,29.85,-9999.0,North,-9999.0,-,N/A,,Unknown,0,2011-11-12 18:54:00
2:54 PM,46.0,28.0,50,29.86,-9999.0,North,-9999.0,-,N/A,,Unknown,0,2011-11-12 19:54:00
3:54 PM,46.0,27.0,47,29.88,-9999.0,North,-9999.0,-,N/A,,Unknown,0,2011-11-12 20:54:00
4:54 PM,46.0,28.0,50,29.91,-9999.0,North,-9999.0,-,N/A,,Unknown,0,2011-11-12 21:54:00
5:54 PM,46.9,28.0,48,29.93,-9999.0,North,-9999.0,-,N/A,,Unknown,0,2011-11-12 22:54:00
6:54 PM,45.0,28.9,53,29.95,-9999.0,North,-9999.0,-,N/A,,Unknown,0,2011-11-12 23:54:00
7:54 PM,43.0,28.9,58,29.97,-9999.0,North,-9999.0,-,N/A,,Unknown,0,2011-11-13 00:54:00
8:54 PM,41.0,30.0,65,29.99,-9999.0,North,-9999.0,-,N/A,,Unknown,0,2011-11-13 01:54:00
10:54 PM,34.0,30.0,85,30.02,-9999.0,North,-9999.0,-,N/A,,Unknown,0,2011-11-13 03:54:00
11:54 PM,32.0,28.9,88,30.04,-9999.0,North,-9999.0,-,N/A,,Unknown,0,2011-11-13 04:54:00